Volver al catálogo

COSMOS 2251 DEB

ActivoLEO
NORAD 33899·DEBRIS·🇷🇺 Russia

Lanzado Jun 16, 1993 desde Plesetsk Cosmodrome

Loading…

Próximos Pases (próximas 24 horas)

TLE

ActualizadoSource: Space-Track

Época: Sep 14, 2026, 12:54 UTC

1 33899U 93036DC  26257.53760837  .00001513  00000-0  29417-3 0  9990
2 33899  74.0501 278.0551 0058261 269.0245 252.8173 14.62992900928705

Sigue COSMOS 2251 DEB en tiempo real con AllMySat

Download on the App Store